Flag for Puerto Rico Weather past 2 weeks in Caguas, Puerto Rico

Now
88 °F

Scattered clouds.


Feels Like: 99 °F
Forecast: 79 / 90 °F
Wind: 21 mph from Northeast

Location: Luis Munoz Marin

Current Time: Jul 23, 2014 at 12:47:52 PM

Latest Report: Jul 23, 2014 at 11:56 AM


Visibility: 10 mi

Pressure: 30.09 "Hg

Humidity: 67%

Dew point: 76 °F

Location of CaguasLocation

Historic Weather in Caguas — Graph

°F

Caguas temperature yesterday

Maximum temperature yesterday: 88 °F (at 12:56 PM)
Minimum temperature yesterday: 79 °F (at 1:56 AM)
Average temperature yesterday: 82 °F

Past Weeks' High & Low Weather Summary

 TemperatureHumidityPressure
High92 °F (Jul 10, 11:56 AM)92% (Jul 22, 2:56 AM)30.15 "Hg (Jul 22, 2:56 AM)
Low78 °F (Jul 11, 3:56 AM)50% (Jul 10, 10:56 AM)30.00 "Hg (Jul 15, 3:56 PM)
Average84 °F73%30.07 "Hg
* Reported Jul 8 10:56 AM — Jul 23 10:56 AM, Caguas, Weather by CustomWeather, © 2014

Note: Actual official high and low records may vary slightly from our data, if they occured in-between our weather recording intervals... More about our weather records

Advertising

Caguas weather history for previous 24 hours

 ConditionsComfort  
Time TempWeatherWind HumidityBarometerVisibility
10:56 AM
Jul 23
88 °FScattered clouds.18 mph70%30.09 "Hg10 mi
9:56 AM88 °FScattered clouds.15 mph67%30.09 "Hg10 mi
8:56 AM86 °FScattered clouds.6 mph72%30.10 "Hg10 mi
7:56 AM85 °FScattered clouds.8 mph75%30.09 "Hg10 mi
6:56 AM82 °FPassing clouds.8 mph79%30.08 "Hg10 mi
5:56 AM81 °FPassing clouds.7 mph82%30.05 "Hg10 mi
4:56 AM82 °FPassing clouds.8 mph79%30.04 "Hg10 mi
3:56 AM81 °FPassing clouds.6 mph82%30.02 "Hg10 mi
1:56 AM82 °FPassing clouds.8 mph79%30.04 "Hg10 mi
12:56 AM83 °FPassing clouds.14 mph77%30.06 "Hg10 mi
11:56 PM
Jul 22
83 °FPassing clouds.9 mph77%30.08 "Hg10 mi
10:56 PM83 °FPassing clouds.9 mph77%30.09 "Hg10 mi
9:56 PM83 °FPassing clouds.8 mph77%30.07 "Hg10 mi
8:56 PM83 °FPassing clouds.7 mph79%30.06 "Hg10 mi
7:56 PM84 °FScattered clouds.10 mph74%30.06 "Hg10 mi
12:56 PM88 °FScattered clouds.20 mph67%30.06 "Hg10 mi
Weather by CustomWeather, © 2014

See weather overviewHow to use our weather pages